Home   Weather   Aberdeen   Past weeks

Flag for United Kingdom Past Weather in Aberdeen, Scotland, United Kingdom — Yesterday and Last 2 Weeks

Now
37 °F

Clear.


Feels Like: 28 °F
Forecast: 43 / 48 °F
Wind: 16 mph from Northwest

Location: Aberdeen / Dyce

Current Time: Apr 26, 2017 at 1:48:31 am

Latest Report: Apr 26, 2017 at 12:50 am


Visibility: 10 mi

Pressure: 30.09 "Hg

Humidity: 75%

Dew Point: 30 °F

Location of AberdeenLocation

Past Weather in Aberdeen — Graph

°F

Aberdeen Temperature Yesterday

Maximum temperature yesterday: 43 °F (at 11:20 am)
Minimum temperature yesterday: 34 °F (at 12:20 am)
Average temperature yesterday: 38 °F

High & Low Weather Summary for the Past Weeks

 TemperatureHumidityPressure
High64 °F (Apr 20, 1:50 pm)100% (Apr 25, 6:20 am)30.51 "Hg (Apr 25, 6:20 am)
Low28 °F (Apr 17, 4:20 am)43% (Apr 17, 12:50 pm)29.71 "Hg (Apr 14, 5:20 pm)
Average45 °F72%30.10 "Hg
* Reported Apr 11 12:20 am — Apr 26 12:20 am, Aberdeen, Weather by CustomWeather, © 2017

Note: Actual official high and low records may vary slightly from our data, if they occured in-between our weather recording intervals... More about our weather records

Advertising

Aberdeen Weather History for the Previous 24 Hours

Scroll right to see more
 ConditionsComfort  
Time TempWeatherWind HumidityBarometerVisibility
12:20 am
Wed, Apr 26
37 °FPassing clouds.16 mph81%30.09 "HgN/A
11:50 pm
Tue, Apr 25
37 °FPassing clouds.15 mph81%30.09 "HgN/A
11:20 pm37 °FPassing clouds.15 mph75%30.09 "HgN/A
10:50 pm37 °FChilly.15 mph75%30.09 "HgN/A
10:20 pm37 °FPassing clouds.14 mph75%30.09 "HgN/A
9:50 pm37 °FChilly.15 mph81%30.07 "HgN/A
9:20 pm37 °FPassing clouds.18 mph81%30.07 "HgN/A
8:50 pm37 °FScattered showers. Passing clouds.15 mph81%30.07 "HgN/A
8:20 pm37 °FSprinkles. Partly sunny.10 mph87%30.07 "Hg6 mi
7:50 pm36 °FHeavy rain. Mostly cloudy.16 mph93%30.07 "Hg2 mi
7:20 pm39 °FScattered showers. Partly sunny.18 mph81%30.07 "HgN/A
6:50 pm37 °FScattered showers. Partly sunny.16 mph81%30.07 "HgN/A
6:20 pm39 °FScattered showers. Partly sunny.18 mph81%30.04 "Hg5 mi
5:50 pm41 °FScattered showers. Broken clouds.16 mph81%30.04 "Hg5 mi
5:20 pm39 °FScattered showers. Scattered clouds.20 mph87%30.01 "HgN/A
4:50 pm37 °FSprinkles. Partly sunny.26 mph87%30.04 "HgN/A
4:20 pm39 °FScattered showers. Broken clouds.18 mph87%30.01 "Hg6 mi
3:50 pm36 °FRain showers. Partly sunny.14 mph93%30.01 "Hg3 mi
3:20 pm41 °FScattered showers. Broken clouds.22 mph87%30.01 "Hg5 mi
2:50 pm37 °FScattered showers. Broken clouds.22 mph93%30.01 "HgN/A
2:20 pm41 °FSprinkles. Partly sunny.29 mph81%29.98 "HgN/A
1:50 pm43 °FPartly sunny.26 mph81%29.98 "HgN/A
1:20 pm41 °FBroken clouds.21 mph81%29.98 "HgN/A
12:50 pm39 °FMixture of precip. Partly sunny.17 mph87%29.98 "HgN/A
12:20 pm41 °FSprinkles. Partly sunny.23 mph76%29.95 "Hg6 mi
11:50 am43 °FScattered showers. Partly sunny.23 mph76%29.95 "HgN/A
11:20 am43 °FRain showers. Scattered clouds.20 mph87%29.92 "HgN/A
10:50 am37 °FScattered showers. Partly sunny.22 mph93%29.92 "HgN/A
10:20 am41 °FRain showers. Partly sunny.21 mph87%29.89 "Hg6 mi
9:50 am37 °FBroken clouds.22 mph93%29.89 "HgN/A
9:20 am37 °FRain. Partly sunny.17 mph93%29.89 "Hg5 mi
8:50 am39 °FLight rain. Broken clouds.24 mph87%29.89 "Hg6 mi
7:50 am37 °FSprinkles. Partly sunny.18 mph87%29.86 "HgN/A
7:20 am37 °FRain. Broken clouds.20 mph87%29.86 "Hg3 mi
6:50 am36 °FSleet. Partly sunny.18 mph93%29.86 "Hg5 mi
6:20 am34 °FScattered showers. Partly sunny.18 mph100%29.86 "Hg5 mi
5:50 am36 °FHeavy snow. Partly sunny.18 mph87%29.86 "Hg1 mi
5:20 am36 °FScattered showers. Passing clouds.15 mph87%29.83 "HgN/A
4:50 am36 °FScattered showers. Passing clouds.18 mph87%29.86 "HgN/A
4:20 am36 °FPartly cloudy.17 mph87%29.86 "HgN/A
3:50 am36 °FScattered showers. Passing clouds.20 mph87%29.86 "Hg6 mi
3:20 am36 °FThundershowers. Passing clouds.13 mph87%29.86 "Hg5 mi
2:50 am36 °FScattered showers. Passing clouds.14 mph87%29.86 "Hg5 mi
2:20 am34 °FLight rain. Passing clouds.14 mph93%29.86 "HgN/A
1:50 am34 °FLight mixture of precip. Passing clouds.13 mph93%29.86 "Hg6 mi
1:20 am34 °FLight rain. Partly cloudy.15 mph87%29.86 "HgN/A
Weather by CustomWeather, © 2017

See weather overviewHow to use our weather pages